Home   Weather   Shanghai   Past weeks
Flag for China

Past Weather in Shanghai, Shanghai Municipality, China — Yesterday and Last 2 Weeks

Now
41 °F

Passing clouds.


Feels Like: 36 °F
Forecast: 30 / 48 °F
Wind: 8 mph from North

Location: Shanghai Hongqiao Airport

Current Time: Jan 16, 2019 at 2:12:07 pm

Latest Report: Jan 16, 2019 at 1:30 pm


Visibility: N/A

Pressure: 30.36 "Hg

Humidity: 49%

Dew Point: 23 °F

Location of ShanghaiLocation

Past Weather in Shanghai — Graph

°F

Shanghai Temperature Yesterday

Maximum temperature yesterday: 46 °F (at 11:00 am)
Minimum temperature yesterday: 39 °F (at 11:00 pm)
Average temperature yesterday: 44 °F

High & Low Weather Summary for the Past Weeks

 TemperatureHumidityPressure
High52 °F (Jan 4, 1:00 pm)100% (Jan 4, 10:00 am)30.66 "Hg (Jan 4, 10:00 am)
Low34 °F (Jan 1, 10:00 pm)49% (Jan 1, 1:30 pm)30.12 "Hg (Jan 11, 1:00 pm)
Average44 °F82%30.38 "Hg
* Reported Jan 1 1:00 pm — Jan 16 1:00 pm, Shanghai. Weather by CustomWeather, © 2019

Note: Actual official high and low records may vary slightly from our data, if they occured in-between our weather recording intervals... More about our weather records

Advertising

Shanghai Weather History for the Previous 24 Hours

Scroll right to see more
 ConditionsComfort  
Time TempWeatherWind HumidityBarometerVisibility
1:00 pm
Wed, Jan 16
41 °FPassing clouds.8 mph53%30.39 "HgN/A
12:30 pm41 °FScattered clouds.8 mph53%30.39 "HgN/A
12:00 pm39 °FScattered clouds.6 mph61%30.42 "HgN/A
11:30 am39 °FScattered clouds.6 mph61%30.42 "HgN/A
11:00 am39 °FScattered clouds.6 mph61%30.45 "HgN/A
10:30 am39 °FScattered clouds.6 mph65%30.45 "HgN/A
10:00 am37 °FPartly sunny.8 mph70%30.48 "HgN/A
9:30 am37 °FPartly sunny.8 mph70%30.48 "HgN/A
9:00 am36 °FPartly sunny.10 mph75%30.48 "HgN/A
8:30 am36 °FSunny.8 mph75%30.45 "Hg10 mi
8:00 am36 °FSunny.8 mph75%30.45 "Hg10 mi
7:30 am34 °FSunny.8 mph75%30.45 "Hg10 mi
7:00 am34 °FSunny.10 mph75%30.45 "Hg10 mi
6:30 am36 °FClear.10 mph70%30.45 "Hg10 mi
6:00 am36 °FClear.10 mph70%30.45 "Hg10 mi
5:30 am36 °FClear.10 mph75%30.42 "Hg10 mi
5:00 am36 °FClear.13 mph75%30.42 "Hg10 mi
4:30 am37 °FClear.10 mph70%30.45 "Hg10 mi
4:00 am37 °FClear.13 mph65%30.45 "Hg10 mi
3:30 am37 °FPassing clouds.13 mph65%30.45 "HgN/A
3:00 am37 °FPassing clouds.13 mph70%30.45 "HgN/A
2:30 am37 °FPassing clouds.13 mph70%30.45 "HgN/A
2:00 am37 °FClear.15 mph75%30.45 "Hg10 mi
1:30 am39 °FClear.13 mph65%30.45 "Hg10 mi
1:00 am39 °FClear.13 mph70%30.45 "Hg10 mi
12:30 am39 °FPassing clouds.13 mph65%30.45 "HgN/A
12:00 am39 °FPassing clouds.17 mph70%30.45 "HgN/A
11:30 pm
Tue, Jan 15
39 °FPassing clouds.15 mph70%30.45 "HgN/A
11:00 pm39 °FPassing clouds.13 mph70%30.48 "HgN/A
10:30 pm41 °FPassing clouds.15 mph66%30.45 "HgN/A
10:00 pm41 °FPassing clouds.15 mph70%30.45 "HgN/A
9:30 pm41 °FPassing clouds.17 mph70%30.45 "HgN/A
9:00 pm41 °FPassing clouds.15 mph76%30.45 "HgN/A
8:30 pm43 °FPassing clouds.17 mph71%30.45 "HgN/A
8:00 pm43 °FPassing clouds.17 mph71%30.45 "Hg4 mi
7:30 pm43 °FHaze.15 mph71%30.42 "Hg2 mi
7:00 pm43 °FHaze.15 mph76%30.42 "Hg2 mi
6:30 pm45 °FHaze.17 mph66%30.42 "Hg2 mi
6:00 pm45 °FHaze.17 mph71%30.39 "Hg2 mi
5:30 pm45 °FHaze.15 mph76%30.39 "Hg2 mi
5:00 pm45 °FHaze.13 mph76%30.39 "Hg2 mi
4:30 pm45 °FHaze.15 mph71%30.36 "Hg2 mi
4:00 pm45 °FHaze.15 mph71%30.36 "Hg2 mi
3:30 pm46 °FHaze.13 mph66%30.36 "Hg2 mi
3:00 pm46 °FHaze.15 mph71%30.33 "Hg2 mi
2:30 pm46 °FHaze.13 mph66%30.33 "Hg2 mi
2:00 pm46 °FFog.13 mph71%30.33 "Hg2 mi
Weather by CustomWeather, © 2019

See weather overview